Weather History for KMFI - March, 2013

Change the Weather History Date:

Friday, March 29, 2013

  Actual Average Record
Temperature  
Mean Temperature 34 °F -  
Max Temperature 48 °F 46 °F 80 °F (1986)
Min Temperature 21 °F 27 °F -3 °F (1969)
Degree Days  
Heating Degree Days 32    
Moisture  
Dew Point 17 °F    
Average Humidity 51    
Maximum Humidity 74    
Minimum Humidity 31    
Precipitation  
Precipitation 0.00 in - - ()
Sea Level Pressure  
Sea Level Pressure 30.29 in    
Wind  
Wind Speed 2 mph (SE)    
Max Wind Speed 6 mph    
Max Gust Speed -    
Visibility 10 miles    
Events      
Averages and records for this station are not official NWS values.
T = Trace of Precipitation, MM = Missing Value Source: NWS Daily Summary

Daily Weather History Graph

Daily Weather History Graph

Search for Another Location

Airport or City:

Trip Planner

Search our weather history database for the weather conditions in past years. The results will help you decide how hot, cold, wet, or windy it might be!

Date:

Astronomy

Mar. 29, 2013 Rise Set
Actual Time 6:46 AM CDT 7:24 PM CDT
Civil Twilight 6:17 AM CDT 7:54 PM CDT
Nautical Twilight 5:42 AM CDT 8:29 PM CDT
Astronomical Twilight 5:06 AM CDT 9:05 PM CDT
Moon 10:33 PM CDT (3/29) 7:48 AM CDT (3/29)
Length of Visible Light 13h 36m
Length of Day
12h 38m
Waning Gibbous, 93% of the Moon is Illuminated
Mar 29
Waning Gibbous
Apr 2
Last Quarter
Apr 10
New
Apr 18
First Quarter
Apr 25
Full

Hourly Weather History & Observations

Time (CDT) Temp. Windchill Dew Point Humidity Pressure Visibility Wind Dir Wind Speed Gust Speed Precip Events Conditions
12:54 AM 28.0 °F 24.2 °F 15.1 °F 58% 30.32 in 10.0 mi NW 3.5 mph - N/A   Clear
1:54 AM 27.0 °F - 15.1 °F 61% 30.33 in 10.0 mi Calm Calm - N/A   Clear
2:54 AM 24.1 °F 18.2 °F 14.0 °F 65% 30.33 in 10.0 mi North 4.6 mph - N/A   Clear
3:54 AM 21.9 °F 17.2 °F 14.0 °F 72% 30.33 in 10.0 mi NNW 3.5 mph - N/A   Clear
4:54 AM 21.9 °F - 14.0 °F 72% 30.32 in 10.0 mi Calm Calm - N/A   Clear
5:54 AM 23.0 °F - 14.0 °F 68% 30.32 in 10.0 mi Calm Calm - N/A   Clear
6:54 AM 21.0 °F - 14.0 °F 74% 30.33 in 10.0 mi Calm Calm - N/A   Clear
7:54 AM 23.0 °F - 15.1 °F 72% 30.35 in 10.0 mi Calm Calm - N/A   Clear
8:54 AM 30.9 °F 27.5 °F 17.1 °F 57% 30.35 in 10.0 mi East 3.5 mph - N/A   Clear
9:54 AM 35.1 °F - 18.0 °F 50% 30.35 in 10.0 mi Calm Calm - N/A   Clear
10:54 AM 37.0 °F 34.5 °F 19.9 °F 50% 30.34 in 10.0 mi SE 3.5 mph - N/A   Clear
11:54 AM 43.0 °F - 18.0 °F 37% 30.34 in 10.0 mi Calm Calm - N/A   Clear
12:54 PM 41.0 °F 37.1 °F 19.0 °F 41% 30.31 in 10.0 mi SE 5.8 mph - N/A   Clear
1:54 PM 43.0 °F 41.3 °F 18.0 °F 37% 30.30 in 10.0 mi ESE 3.5 mph - N/A   Clear
2:54 PM 45.0 °F - 16.0 °F 31% 30.28 in 10.0 mi Calm Calm - N/A   Clear
3:54 PM 46.0 °F - 17.1 °F 31% 30.26 in 10.0 mi Calm Calm - N/A   Mostly Cloudy
4:54 PM 46.0 °F 44.8 °F 18.0 °F 33% 30.25 in 10.0 mi East 3.5 mph - N/A   Overcast
5:54 PM 45.0 °F 43.5 °F 18.0 °F 34% 30.24 in 10.0 mi East 3.5 mph - N/A   Mostly Cloudy
6:54 PM 45.0 °F - 19.0 °F 36% 30.23 in 10.0 mi Calm Calm - N/A   Mostly Cloudy
7:54 PM 42.1 °F 39.2 °F 21.0 °F 43% 30.22 in 10.0 mi SW 4.6 mph - N/A   Scattered Clouds
8:54 PM 39.9 °F - 21.0 °F 47% 30.22 in 10.0 mi Calm Calm - N/A   Clear
9:54 PM 39.0 °F 35.7 °F 19.0 °F 45% 30.22 in 10.0 mi SSW 4.6 mph - N/A   Scattered Clouds
10:54 PM 35.1 °F 32.2 °F 19.9 °F 54% 30.21 in 10.0 mi SSW 3.5 mph - N/A   Scattered Clouds
11:54 PM 35.1 °F 31.0 °F 21.9 °F 59% 30.19 in 10.0 mi South 4.6 mph - N/A   Overcast